Time,TemperatureF,DewpointF,PressureIn,WindDirection,WindDirectionDegrees,WindSpeedMPH,WindSpeedGustMPH,Humidity,HourlyPrecipIn,Conditions,Clouds,dailyrainin,SoftwareType,DateUTC
2013-10-03 00:02:00,30.6,25.7,29.69,SW,223,0.0,2.0,82,0.00,,,0.00,meteohub,2013-10-03 07:02:00,
2013-10-03 00:07:00,31.1,27.1,29.68,SW,223,0.0,3.0,85,0.00,,,0.00,meteohub,2013-10-03 07:07:00,
2013-10-03 00:12:00,31.5,26.6,29.69,West,273,3.0,3.0,82,0.00,,,0.00,meteohub,2013-10-03 07:12:00,
2013-10-03 00:17:00,31.1,25.9,29.69,West,267,0.0,4.0,81,0.00,,,0.00,meteohub,2013-10-03 07:17:00,
2013-10-03 00:22:00,30.7,26.4,29.69,West,267,0.0,4.0,84,0.00,,,0.00,meteohub,2013-10-03 07:22:00,
2013-10-03 00:27:00,30.6,26.2,29.70,West,267,0.0,4.0,84,0.00,,,0.00,meteohub,2013-10-03 07:27:00,
2013-10-03 00:32:00,30.7,26.8,29.69,West,267,0.0,1.0,85,0.00,,,0.00,meteohub,2013-10-03 07:32:00,
2013-10-03 00:37:00,30.0,25.5,29.69,West,267,1.0,2.0,83,0.00,,,0.00,meteohub,2013-10-03 07:37:00,
2013-10-03 00:42:00,29.8,25.9,29.70,West,267,0.0,3.0,85,0.00,,,0.00,meteohub,2013-10-03 07:42:00,
2013-10-03 00:47:00,29.8,25.5,29.70,West,267,0.0,3.0,84,0.00,,,0.00,meteohub,2013-10-03 07:47:00,
2013-10-03 00:52:00,29.7,25.7,29.70,West,267,0.0,3.0,85,0.00,,,0.00,meteohub,2013-10-03 07:52:00,
2013-10-03 00:57:00,29.8,26.2,29.70,West,267,3.0,3.0,86,0.00,,,0.00,meteohub,2013-10-03 07:57:00,
2013-10-03 01:02:00,29.7,25.2,29.70,West,267,1.0,4.0,83,0.00,,,0.00,meteohub,2013-10-03 08:02:00,
2013-10-03 01:07:00,29.5,25.9,29.70,West,267,3.0,4.0,86,0.00,,,0.00,meteohub,2013-10-03 08:07:00,
2013-10-03 01:12:00,28.8,24.6,29.70,West,267,2.0,4.0,84,0.00,,,0.00,meteohub,2013-10-03 08:12:00,
2013-10-03 01:17:00,28.8,25.3,29.71,West,267,2.0,4.0,87,0.00,,,0.00,meteohub,2013-10-03 08:17:00,
2013-10-03 01:22:00,28.8,25.2,29.71,West,267,0.0,4.0,86,0.00,,,0.00,meteohub,2013-10-03 08:22:00,
2013-10-03 01:27:00,28.8,25.3,29.71,West,267,1.0,4.0,87,0.00,,,0.00,meteohub,2013-10-03 08:27:00,
2013-10-03 01:32:00,29.5,26.4,29.71,West,267,0.0,3.0,88,0.00,,,0.00,meteohub,2013-10-03 08:32:00,
2013-10-03 01:37:00,29.5,25.9,29.71,West,267,0.0,1.0,86,0.00,,,0.00,meteohub,2013-10-03 08:37:00,
2013-10-03 01:42:00,28.4,23.5,29.70,West,267,0.0,1.0,82,0.00,,,0.00,meteohub,2013-10-03 08:42:00,
2013-10-03 01:47:00,28.0,24.1,29.70,West,267,0.0,1.0,85,0.00,,,0.00,meteohub,2013-10-03 08:47:00,
2013-10-03 01:52:00,27.9,24.8,29.70,West,267,0.0,2.0,88,0.00,,,0.00,meteohub,2013-10-03 08:52:00,
2013-10-03 01:57:00,28.2,25.3,29.70,West,267,0.0,2.0,89,0.00,,,0.00,meteohub,2013-10-03 08:57:00,
2013-10-03 02:02:00,28.2,25.2,29.70,West,267,0.0,2.0,88,0.00,,,0.00,meteohub,2013-10-03 09:02:00,
2013-10-03 02:07:00,28.0,24.6,29.70,West,267,0.0,1.0,87,0.00,,,0.00,meteohub,2013-10-03 09:07:00,
2013-10-03 02:12:00,28.6,25.7,29.70,West,267,0.0,0.0,89,0.00,,,0.00,meteohub,2013-10-03 09:12:00,
2013-10-03 02:17:00,27.9,23.9,29.71,West,267,0.0,0.0,85,0.00,,,0.00,meteohub,2013-10-03 09:17:00,
2013-10-03 02:22:00,27.3,24.3,29.71,West,267,0.0,2.0,88,0.00,,,0.00,meteohub,2013-10-03 09:22:00,
2013-10-03 02:27:00,27.3,23.9,29.71,West,267,0.0,2.0,87,0.00,,,0.00,meteohub,2013-10-03 09:27:00,
2013-10-03 02:32:00,27.1,24.1,29.71,West,267,0.0,2.0,88,0.00,,,0.00,meteohub,2013-10-03 09:32:00,
2013-10-03 02:37:00,26.4,22.5,29.71,West,267,3.0,3.0,85,0.00,,,0.00,meteohub,2013-10-03 09:37:00,
2013-10-03 02:42:00,25.7,22.1,29.71,West,267,3.0,4.0,86,0.00,,,0.00,meteohub,2013-10-03 09:42:00,
2013-10-03 02:52:00,25.9,23.5,29.72,West,267,0.0,4.0,91,0.00,,,0.00,meteohub,2013-10-03 09:52:00,
2013-10-03 02:57:00,25.9,23.0,29.72,West,267,0.0,4.0,89,0.00,,,0.00,meteohub,2013-10-03 09:57:00,
2013-10-03 03:02:00,25.5,22.8,29.72,West,267,0.0,3.0,89,0.00,,,0.00,meteohub,2013-10-03 10:02:00,
2013-10-03 03:07:00,25.5,23.0,29.73,West,267,0.0,0.0,90,0.00,,,0.00,meteohub,2013-10-03 10:07:00,
2013-10-03 03:12:00,25.9,23.5,29.73,West,267,0.0,0.0,91,0.00,,,0.00,meteohub,2013-10-03 10:12:00,
2013-10-03 03:17:00,26.4,24.4,29.73,West,267,0.0,1.0,92,0.00,,,0.00,meteohub,2013-10-03 10:17:00,
2013-10-03 03:22:00,26.6,23.7,29.73,West,267,0.0,1.0,89,0.00,,,0.00,meteohub,2013-10-03 10:22:00,
2013-10-03 03:27:00,26.4,23.4,29.73,West,267,0.0,0.0,88,0.00,,,0.00,meteohub,2013-10-03 10:27:00,
2013-10-03 03:32:00,26.2,23.2,29.73,West,267,0.0,0.0,88,0.00,,,0.00,meteohub,2013-10-03 10:32:00,
2013-10-03 03:37:00,25.9,23.0,29.73,West,267,3.0,0.0,89,0.00,,,0.00,meteohub,2013-10-03 10:37:00,
2013-10-03 03:42:00,25.9,23.4,29.73,West,267,2.0,4.0,90,0.00,,,0.00,meteohub,2013-10-03 10:42:00,
2013-10-03 03:47:00,25.9,23.5,29.73,West,267,3.0,4.0,91,0.00,,,0.00,meteohub,2013-10-03 10:47:00,
2013-10-03 03:52:00,26.1,23.5,29.73,West,267,0.0,4.0,90,0.00,,,0.00,meteohub,2013-10-03 10:52:00,
2013-10-03 03:57:00,25.5,22.5,29.73,West,267,0.0,4.0,88,0.00,,,0.00,meteohub,2013-10-03 10:57:00,
2013-10-03 04:02:00,25.3,22.8,29.74,West,267,0.0,4.0,90,0.00,,,0.00,meteohub,2013-10-03 11:02:00,
2013-10-03 04:07:00,25.5,23.2,29.74,West,267,0.0,2.0,91,0.00,,,0.00,meteohub,2013-10-03 11:07:00,
2013-10-03 04:12:00,25.5,23.2,29.75,West,267,0.0,2.0,91,0.00,,,0.00,meteohub,2013-10-03 11:12:00,
2013-10-03 04:17:00,26.2,24.4,29.75,West,267,0.0,1.0,93,0.00,,,0.00,meteohub,2013-10-03 11:17:00,
2013-10-03 04:22:00,27.5,25.5,29.75,West,267,0.0,2.0,92,0.00,,,0.00,meteohub,2013-10-03 11:22:00,
2013-10-03 04:27:00,28.4,25.9,29.75,West,267,0.0,2.0,90,0.00,,,0.00,meteohub,2013-10-03 11:27:00,
2013-10-03 04:32:00,28.6,24.1,29.75,West,262,0.0,2.0,83,0.00,,,0.00,meteohub,2013-10-03 11:32:00,
2013-10-03 04:37:00,27.3,23.2,29.76,WSW,250,5.0,5.0,84,0.00,,,0.00,meteohub,2013-10-03 11:37:00,
2013-10-03 04:42:00,26.4,22.8,29.76,SW,229,0.0,7.0,86,0.00,,,0.00,meteohub,2013-10-03 11:42:00,
2013-10-03 04:47:00,26.6,23.5,29.77,SW,229,0.0,7.0,88,0.00,,,0.00,meteohub,2013-10-03 11:47:00,
2013-10-03 04:52:00,26.1,22.1,29.77,SW,229,0.0,7.0,85,0.00,,,0.00,meteohub,2013-10-03 11:52:00,
2013-10-03 04:57:00,25.0,21.2,29.77,WSW,240,3.0,4.0,85,0.00,,,0.00,meteohub,2013-10-03 11:57:00,
2013-10-03 05:02:00,25.0,22.3,29.77,WSW,240,2.0,4.0,89,0.00,,,0.00,meteohub,2013-10-03 12:02:00,
2013-10-03 05:07:00,25.2,22.6,29.77,WSW,240,2.0,4.0,90,0.00,,,0.00,meteohub,2013-10-03 12:07:00,
2013-10-03 05:12:00,25.2,22.1,29.77,WSW,240,0.0,4.0,88,0.00,,,0.00,meteohub,2013-10-03 12:12:00,
2013-10-03 05:17:00,25.0,22.3,29.78,WSW,240,0.0,4.0,89,0.00,,,0.00,meteohub,2013-10-03 12:17:00,
2013-10-03 05:22:00,25.0,22.3,29.78,WSW,240,0.0,3.0,89,0.00,,,0.00,meteohub,2013-10-03 12:22:00,
2013-10-03 05:27:00,25.0,22.3,29.78,WSW,240,0.0,1.0,89,0.00,,,0.00,meteohub,2013-10-03 12:27:00,
2013-10-03 05:32:00,25.2,22.5,29.78,East,101,1.0,1.0,89,0.00,,,0.00,meteohub,2013-10-03 12:32:00,
2013-10-03 05:37:00,25.2,22.5,29.78,East,80,0.0,2.0,89,0.00,,,0.00,meteohub,2013-10-03 12:37:00,
2013-10-03 05:42:00,25.0,22.3,29.78,East,80,0.0,5.0,89,0.00,,,0.00,meteohub,2013-10-03 12:42:00,
2013-10-03 05:47:00,25.0,22.5,29.78,East,80,2.0,5.0,90,0.00,,,0.00,meteohub,2013-10-03 12:47:00,
2013-10-03 05:52:00,25.2,22.8,29.78,ENE,59,3.0,5.0,91,0.00,,,0.00,meteohub,2013-10-03 12:52:00,
2013-10-03 05:57:00,25.2,22.5,29.79,NE,53,0.0,7.0,89,0.00,,,0.00,meteohub,2013-10-03 12:57:00,
2013-10-03 06:02:00,24.8,22.3,29.79,NE,53,0.0,7.0,90,0.00,,,0.00,meteohub,2013-10-03 13:02:00,
2013-10-03 06:07:00,25.3,23.4,29.79,ENE,69,0.0,7.0,92,0.00,,,0.00,meteohub,2013-10-03 13:07:00,
2013-10-03 06:12:00,26.2,24.3,29.79,ENE,69,1.0,2.0,92,0.00,,,0.00,meteohub,2013-10-03 13:12:00,
2013-10-03 06:17:00,26.8,24.4,29.80,ENE,69,0.0,2.0,91,0.00,,,0.00,meteohub,2013-10-03 13:17:00,
2013-10-03 06:22:00,27.0,24.4,29.80,ENE,69,0.0,2.0,90,0.00,,,0.00,meteohub,2013-10-03 13:22:00,
2013-10-03 06:27:00,27.3,24.4,29.80,ESE,108,0.0,3.0,89,0.00,,,0.00,meteohub,2013-10-03 13:27:00,
2013-10-03 06:32:00,27.3,23.7,29.81,ESE,108,0.0,3.0,86,0.00,,,0.00,meteohub,2013-10-03 13:32:00,
2013-10-03 06:37:00,26.4,22.8,29.81,WSW,247,3.0,3.0,86,0.00,,,0.00,meteohub,2013-10-03 13:37:00,
2013-10-03 06:42:00,25.9,22.3,29.81,WSW,247,3.0,4.0,86,0.00,,,0.00,meteohub,2013-10-03 13:42:00,
2013-10-03 06:47:00,25.5,22.5,29.81,WSW,246,0.0,5.0,88,0.00,,,0.00,meteohub,2013-10-03 13:47:00,
2013-10-03 06:52:00,25.7,22.6,29.81,WSW,246,2.0,5.0,88,0.00,,,0.00,meteohub,2013-10-03 13:52:00,
2013-10-03 06:57:00,26.1,23.2,29.81,WSW,246,0.0,5.0,89,0.00,,,0.00,meteohub,2013-10-03 13:57:00,
2013-10-03 07:02:00,27.0,23.9,29.81,WSW,246,0.0,3.0,88,0.00,,,0.00,meteohub,2013-10-03 14:02:00,
2013-10-03 07:07:00,27.3,24.3,29.81,WSW,246,0.0,3.0,88,0.00,,,0.00,meteohub,2013-10-03 14:07:00,
2013-10-03 07:12:00,27.9,24.4,29.82,WSW,246,0.0,1.0,87,0.00,,,0.00,meteohub,2013-10-03 14:12:00,
2013-10-03 07:17:00,28.2,25.2,29.82,WSW,246,0.0,1.0,88,0.00,,,0.00,meteohub,2013-10-03 14:17:00,
2013-10-03 07:22:00,29.3,26.2,29.82,WSW,246,0.0,0.0,88,0.00,,,0.00,meteohub,2013-10-03 14:22:00,
2013-10-03 07:27:00,30.6,27.0,29.82,WSW,246,0.0,1.0,86,0.00,,,0.00,meteohub,2013-10-03 14:27:00,
2013-10-03 07:32:00,31.6,27.7,29.82,WSW,246,1.0,1.0,85,0.00,,,0.00,meteohub,2013-10-03 14:32:00,
2013-10-03 07:37:00,32.5,27.7,29.82,WSW,246,0.0,3.0,82,0.00,,,0.00,meteohub,2013-10-03 14:37:00,
2013-10-03 07:42:00,33.1,28.2,29.82,WSW,249,0.0,3.0,82,0.00,,,0.00,meteohub,2013-10-03 14:42:00,
2013-10-03 07:47:00,33.6,28.4,29.82,WSW,249,0.0,3.0,81,0.00,,,0.00,meteohub,2013-10-03 14:47:00,
2013-10-03 07:52:00,34.2,28.0,29.82,WSW,251,0.0,1.0,78,0.00,,,0.00,meteohub,2013-10-03 14:52:00,
2013-10-03 07:57:00,34.7,28.9,29.82,WSW,251,0.0,1.0,79,0.00,,,0.00,meteohub,2013-10-03 14:57:00,
2013-10-03 08:02:00,35.2,29.1,29.82,West,271,1.0,1.0,78,0.00,,,0.00,meteohub,2013-10-03 15:02:00,
2013-10-03 08:07:00,35.8,29.7,29.81,NNW,338,0.0,1.0,78,0.00,,,0.00,meteohub,2013-10-03 15:07:00,
2013-10-03 08:12:00,36.5,30.0,29.82,NNW,338,0.0,2.0,77,0.00,,,0.00,meteohub,2013-10-03 15:12:00,
2013-10-03 08:17:00,37.4,30.2,29.81,NNW,338,0.0,2.0,75,0.00,,,0.00,meteohub,2013-10-03 15:17:00,
2013-10-03 08:22:00,38.1,29.8,29.82,NNW,339,0.0,2.0,72,0.00,,,0.00,meteohub,2013-10-03 15:22:00,
2013-10-03 08:27:00,38.8,30.6,29.82,NNW,339,0.0,2.0,72,0.00,,,0.00,meteohub,2013-10-03 15:27:00,
2013-10-03 08:32:00,39.7,29.7,29.82,NNW,342,0.0,2.0,67,0.00,,,0.00,meteohub,2013-10-03 15:32:00,
2013-10-03 08:37:00,40.8,30.4,29.81,NNW,342,0.0,2.0,66,0.00,,,0.00,meteohub,2013-10-03 15:37:00,
2013-10-03 08:42:00,41.5,29.8,29.81,North,355,0.0,3.0,63,0.00,,,0.00,meteohub,2013-10-03 15:42:00,
2013-10-03 08:47:00,42.1,31.1,29.81,North,5,0.0,3.0,65,0.00,,,0.00,meteohub,2013-10-03 15:47:00,
2013-10-03 08:52:00,42.4,30.7,29.81,NE,44,1.0,3.0,63,0.00,,,0.00,meteohub,2013-10-03 15:52:00,
2013-10-03 08:57:00,43.0,31.3,29.80,ENE,69,0.0,4.0,63,0.00,,,0.00,meteohub,2013-10-03 15:57:00,
2013-10-03 09:02:00,43.5,31.3,29.80,ENE,61,2.0,4.0,62,0.00,,,0.00,meteohub,2013-10-03 16:02:00,
2013-10-03 09:07:00,44.4,31.8,29.80,ENE,72,3.0,7.0,61,0.00,,,0.00,meteohub,2013-10-03 16:07:00,
2013-10-03 09:12:00,45.1,31.6,29.79,ENE,65,2.0,7.0,59,0.00,,,0.00,meteohub,2013-10-03 16:12:00,
2013-10-03 09:17:00,45.9,32.4,29.79,NE,54,1.0,7.0,59,0.00,,,0.00,meteohub,2013-10-03 16:17:00,
2013-10-03 09:22:00,46.6,31.6,29.79,ENE,59,3.0,7.0,56,0.00,,,0.00,meteohub,2013-10-03 16:22:00,
2013-10-03 09:27:00,47.3,32.0,29.79,East,81,3.0,5.0,55,0.00,,,0.00,meteohub,2013-10-03 16:27:00,
2013-10-03 09:32:00,48.0,32.5,29.78,ENE,74,0.0,5.0,55,0.00,,,0.00,meteohub,2013-10-03 16:32:00,
2013-10-03 09:37:00,48.9,31.1,29.78,ENE,74,1.0,5.0,50,0.00,,,0.00,meteohub,2013-10-03 16:37:00,
2013-10-03 09:47:00,50.4,32.9,29.77,NE,48,4.0,6.0,51,0.00,,,0.00,meteohub,2013-10-03 16:47:00,
2013-10-03 09:52:00,51.3,32.2,29.77,NE,36,2.0,6.0,48,0.00,,,0.00,meteohub,2013-10-03 16:52:00,
2013-10-03 09:57:00,51.8,31.6,29.76,East,92,2.0,6.0,46,0.00,,,0.00,meteohub,2013-10-03 16:57:00,
2013-10-03 10:02:00,52.5,33.4,29.76,NNE,15,7.0,7.0,48,0.00,,,0.00,meteohub,2013-10-03 17:02:00,
2013-10-03 10:07:00,53.2,31.8,29.76,North,5,4.0,8.0,44,0.00,,,0.00,meteohub,2013-10-03 17:07:00,
2013-10-03 10:17:00,54.7,33.8,29.75,NNE,20,6.0,8.0,45,0.00,,,0.00,meteohub,2013-10-03 17:17:00,
2013-10-03 10:22:00,55.2,33.1,29.75,ENE,64,1.0,7.0,43,0.00,,,0.00,meteohub,2013-10-03 17:22:00,
2013-10-03 10:27:00,55.9,33.3,29.75,NNE,24,5.0,7.0,42,0.00,,,0.00,meteohub,2013-10-03 17:27:00,
2013-10-03 10:32:00,56.7,33.3,29.75,East,86,5.0,7.0,41,0.00,,,0.00,meteohub,2013-10-03 17:32:00,
2013-10-03 10:37:00,57.2,33.1,29.75,East,98,6.0,12.0,40,0.00,,,0.00,meteohub,2013-10-03 17:37:00,
2013-10-03 10:42:00,57.6,34.7,29.75,East,95,11.0,14.0,42,0.00,,,0.00,meteohub,2013-10-03 17:42:00,
2013-10-03 10:47:00,57.9,33.1,29.74,ENE,65,8.0,14.0,39,0.00,,,0.00,meteohub,2013-10-03 17:47:00,
2013-10-03 10:52:00,57.9,34.3,29.74,ENE,66,11.0,14.0,41,0.00,,,0.00,meteohub,2013-10-03 17:52:00,
2013-10-03 11:02:00,57.7,32.9,29.74,ENE,67,9.0,14.0,39,0.00,,,0.00,meteohub,2013-10-03 18:02:00,
2013-10-03 11:07:00,58.3,32.7,29.73,ENE,76,8.0,14.0,38,0.00,,,0.00,meteohub,2013-10-03 18:07:00,
2013-10-03 11:12:00,58.8,31.3,29.73,ENE,76,4.0,14.0,35,0.00,,,0.00,meteohub,2013-10-03 18:12:00,
2013-10-03 11:17:00,58.8,28.9,29.73,NE,53,8.0,14.0,32,0.00,,,0.00,meteohub,2013-10-03 18:17:00,
2013-10-03 11:22:00,59.4,30.9,29.73,ENE,68,5.0,12.0,34,0.00,,,0.00,meteohub,2013-10-03 18:22:00,
2013-10-03 11:27:00,59.5,28.0,29.73,ENE,78,2.0,11.0,30,0.00,,,0.00,meteohub,2013-10-03 18:27:00,
2013-10-03 11:32:00,59.4,27.1,29.72,ENE,61,5.0,15.0,29,0.00,,,0.00,meteohub,2013-10-03 18:32:00,
2013-10-03 11:42:00,59.9,26.8,29.72,NE,53,7.0,15.0,28,0.00,,,0.00,meteohub,2013-10-03 18:42:00,
2013-10-03 11:47:00,60.3,27.0,29.71,ENE,74,2.0,13.0,28,0.00,,,0.00,meteohub,2013-10-03 18:47:00,
2013-10-03 11:52:00,60.6,28.9,29.71,ESE,117,0.0,13.0,30,0.00,,,0.00,meteohub,2013-10-03 18:52:00,
2013-10-03 11:57:00,61.0,25.9,29.71,ESE,103,4.0,13.0,26,0.00,,,0.00,meteohub,2013-10-03 18:57:00,
2013-10-03 12:02:00,61.2,25.0,29.70,NE,44,5.0,10.0,25,0.00,,,0.00,meteohub,2013-10-03 19:02:00,
2013-10-03 12:07:00,60.8,26.6,29.70,ENE,71,4.0,10.0,27,0.00,,,0.00,meteohub,2013-10-03 19:07:00,
2013-10-03 12:12:00,61.0,27.7,29.70,NNE,27,9.0,14.0,28,0.00,,,0.00,meteohub,2013-10-03 19:12:00,
2013-10-03 12:17:00,61.0,25.9,29.69,WNW,284,0.0,14.0,26,0.00,,,0.00,meteohub,2013-10-03 19:17:00,
2013-10-03 12:22:00,61.5,27.1,29.69,East,82,7.0,12.0,27,0.00,,,0.00,meteohub,2013-10-03 19:22:00,
2013-10-03 12:27:00,61.9,27.5,29.69,NE,53,8.0,12.0,27,0.00,,,0.00,meteohub,2013-10-03 19:27:00,
2013-10-03 12:32:00,61.5,26.2,29.69,North,0,4.0,12.0,26,0.00,,,0.00,meteohub,2013-10-03 19:32:00,
2013-10-03 12:37:00,61.5,25.3,29.68,NNE,33,3.0,12.0,25,0.00,,,0.00,meteohub,2013-10-03 19:37:00,
2013-10-03 12:42:00,61.5,28.0,29.68,NE,44,6.0,12.0,28,0.00,,,0.00,meteohub,2013-10-03 19:42:00,
2013-10-03 12:47:00,61.5,25.3,29.68,East,84,2.0,10.0,25,0.00,,,0.00,meteohub,2013-10-03 19:47:00,
2013-10-03 12:52:00,61.9,25.7,29.67,NE,53,7.0,10.0,25,0.00,,,0.00,meteohub,2013-10-03 19:52:00,
2013-10-03 12:57:00,61.7,27.3,29.67,ENE,61,10.0,10.0,27,0.00,,,0.00,meteohub,2013-10-03 19:57:00,
2013-10-03 13:02:00,62.1,25.9,29.67,ESE,121,4.0,11.0,25,0.00,,,0.00,meteohub,2013-10-03 20:02:00,
2013-10-03 13:07:00,62.2,27.9,29.66,ESE,120,4.0,11.0,27,0.00,,,0.00,meteohub,2013-10-03 20:07:00,
2013-10-03 13:12:00,62.8,26.4,29.66,East,92,2.0,11.0,25,0.00,,,0.00,meteohub,2013-10-03 20:12:00,
2013-10-03 13:17:00,63.1,25.7,29.66,ESE,107,1.0,7.0,24,0.00,,,0.00,meteohub,2013-10-03 20:17:00,
2013-10-03 13:22:00,63.0,24.6,29.65,NNW,348,4.0,15.0,23,0.00,,,0.00,meteohub,2013-10-03 20:22:00,
2013-10-03 13:27:00,63.3,25.9,29.65,ENE,76,9.0,15.0,24,0.00,,,0.00,meteohub,2013-10-03 20:27:00,
2013-10-03 13:32:00,63.7,27.1,29.65,East,80,5.0,14.0,25,0.00,,,0.00,meteohub,2013-10-03 20:32:00,
2013-10-03 13:37:00,63.9,28.2,29.65,ESE,115,2.0,14.0,26,0.00,,,0.00,meteohub,2013-10-03 20:37:00,
2013-10-03 13:42:00,63.7,27.1,29.65,ENE,59,12.0,14.0,25,0.00,,,0.00,meteohub,2013-10-03 20:42:00,
2013-10-03 13:47:00,63.3,27.0,29.65,ENE,76,12.0,14.0,25,0.00,,,0.00,meteohub,2013-10-03 20:47:00,
2013-10-03 13:52:00,63.7,27.1,29.65,East,81,5.0,14.0,25,0.00,,,0.00,meteohub,2013-10-03 20:52:00,
2013-10-03 13:57:00,63.9,26.4,29.65,East,90,3.0,14.0,24,0.00,,,0.00,meteohub,2013-10-03 20:57:00,
2013-10-03 14:02:00,64.0,27.5,29.66,NNE,21,7.0,14.0,25,0.00,,,0.00,meteohub,2013-10-03 21:02:00,
2013-10-03 14:07:00,63.9,24.3,29.65,NE,46,6.0,12.0,22,0.00,,,0.00,meteohub,2013-10-03 21:07:00,
2013-10-03 14:12:00,64.0,19.6,29.66,NNW,329,5.0,10.0,18,0.00,,,0.00,meteohub,2013-10-03 21:12:00,
2013-10-03 14:17:00,64.9,22.8,29.65,NNW,345,19.0,19.0,20,0.00,,,0.00,meteohub,2013-10-03 21:17:00,
2013-10-03 14:22:00,64.4,18.7,29.65,NNW,330,9.0,20.0,17,0.00,,,0.00,meteohub,2013-10-03 21:22:00,
2013-10-03 14:27:00,64.2,26.6,29.65,East,85,9.0,20.0,24,0.00,,,0.00,meteohub,2013-10-03 21:27:00,
2013-10-03 14:32:00,63.9,19.6,29.65,NW,323,9.0,20.0,18,0.00,,,0.00,meteohub,2013-10-03 21:32:00,
2013-10-03 14:37:00,63.9,24.3,29.65,East,87,6.0,19.0,22,0.00,,,0.00,meteohub,2013-10-03 21:37:00,
2013-10-03 14:42:00,64.0,23.4,29.64,NNE,30,10.0,19.0,21,0.00,,,0.00,meteohub,2013-10-03 21:42:00,
2013-10-03 14:47:00,63.5,19.2,29.64,NNE,30,6.0,19.0,18,0.00,,,0.00,meteohub,2013-10-03 21:47:00,
2013-10-03 14:52:00,63.7,19.4,29.64,NNE,21,7.0,18.0,18,0.00,,,0.00,meteohub,2013-10-03 21:52:00,
2013-10-03 14:57:00,63.3,19.0,29.65,North,5,13.0,18.0,18,0.00,,,0.00,meteohub,2013-10-03 21:57:00,
2013-10-03 15:02:00,62.8,18.7,29.65,NNW,331,9.0,19.0,18,0.00,,,0.00,meteohub,2013-10-03 22:02:00,
2013-10-03 15:07:00,62.8,18.7,29.65,NNE,17,9.0,19.0,18,0.00,,,0.00,meteohub,2013-10-03 22:07:00,
2013-10-03 15:12:00,62.4,19.6,29.65,NE,54,8.0,19.0,19,0.00,,,0.00,meteohub,2013-10-03 22:12:00,
2013-10-03 15:17:00,62.8,22.3,29.64,NE,38,13.0,17.0,21,0.00,,,0.00,meteohub,2013-10-03 22:17:00,
2013-10-03 15:22:00,63.0,21.2,29.65,North,351,14.0,17.0,20,0.00,,,0.00,meteohub,2013-10-03 22:22:00,
2013-10-03 15:27:00,63.0,23.5,29.65,NNE,24,9.0,16.0,22,0.00,,,0.00,meteohub,2013-10-03 22:27:00,
2013-10-03 15:32:00,63.1,18.9,29.65,NE,55,8.0,16.0,18,0.00,,,0.00,meteohub,2013-10-03 22:32:00,
2013-10-03 15:37:00,63.1,22.6,29.65,NNE,23,10.0,15.0,21,0.00,,,0.00,meteohub,2013-10-03 22:37:00,
2013-10-03 15:42:00,63.3,23.9,29.65,NNE,20,8.0,13.0,22,0.00,,,0.00,meteohub,2013-10-03 22:42:00,
2013-10-03 15:47:00,62.8,22.3,29.65,North,5,5.0,13.0,21,0.00,,,0.00,meteohub,2013-10-03 22:47:00,
2013-10-03 15:52:00,61.9,22.6,29.65,NNW,347,5.0,13.0,22,0.00,,,0.00,meteohub,2013-10-03 22:52:00,
2013-10-03 15:57:00,62.1,22.8,29.65,NW,314,10.0,12.0,22,0.00,,,0.00,meteohub,2013-10-03 22:57:00,
2013-10-03 16:02:00,62.1,24.8,29.65,NW,309,10.0,18.0,24,0.00,,,0.00,meteohub,2013-10-03 23:02:00,
2013-10-03 16:07:00,62.1,24.8,29.65,West,262,16.0,18.0,24,0.00,,,0.00,meteohub,2013-10-03 23:07:00,
2013-10-03 16:12:00,61.9,20.3,29.66,NW,309,8.0,18.0,20,0.00,,,0.00,meteohub,2013-10-03 23:12:00,
2013-10-03 16:17:00,61.9,22.6,29.66,NNW,335,12.0,16.0,22,0.00,,,0.00,meteohub,2013-10-03 23:17:00,
2013-10-03 16:22:00,61.3,21.0,29.66,WNW,290,14.0,16.0,21,0.00,,,0.00,meteohub,2013-10-03 23:22:00,
2013-10-03 16:27:00,60.6,22.6,29.66,WNW,294,9.0,15.0,23,0.00,,,0.00,meteohub,2013-10-03 23:27:00,
2013-10-03 16:32:00,60.4,22.5,29.66,West,263,9.0,15.0,23,0.00,,,0.00,meteohub,2013-10-03 23:32:00,
2013-10-03 16:37:00,59.9,23.0,29.67,NW,305,7.0,15.0,24,0.00,,,0.00,meteohub,2013-10-03 23:37:00,
2013-10-03 16:42:00,59.5,21.7,29.67,NW,304,2.0,16.0,23,0.00,,,0.00,meteohub,2013-10-03 23:42:00,
2013-10-03 16:47:00,59.2,20.3,29.67,NE,48,10.0,16.0,22,0.00,,,0.00,meteohub,2013-10-03 23:47:00,
2013-10-03 16:52:00,59.2,22.5,29.67,NW,318,8.0,14.0,24,0.00,,,0.00,meteohub,2013-10-03 23:52:00,
2013-10-03 16:57:00,59.4,20.5,29.67,North,350,9.0,14.0,22,0.00,,,0.00,meteohub,2013-10-03 23:57:00,
2013-10-03 17:02:00,59.5,20.7,29.67,North,351,6.0,15.0,22,0.00,,,0.00,meteohub,2013-10-04 00:02:00,
2013-10-03 17:07:00,59.5,19.6,29.68,NNW,329,8.0,17.0,21,0.00,,,0.00,meteohub,2013-10-04 00:07:00,
2013-10-03 17:12:00,59.2,20.3,29.68,North,5,12.0,17.0,22,0.00,,,0.00,meteohub,2013-10-04 00:12:00,
2013-10-03 17:17:00,59.0,21.2,29.68,NE,34,7.0,17.0,23,0.00,,,0.00,meteohub,2013-10-04 00:17:00,
2013-10-03 17:22:00,58.6,21.9,29.68,North,5,5.0,19.0,24,0.00,,,0.00,meteohub,2013-10-04 00:22:00,
2013-10-03 17:27:00,58.5,22.8,29.68,North,349,3.0,19.0,25,0.00,,,0.00,meteohub,2013-10-04 00:27:00,
2013-10-03 17:32:00,57.7,24.8,29.68,WSW,257,5.0,15.0,28,0.00,,,0.00,meteohub,2013-10-04 00:32:00,
2013-10-03 17:37:00,56.5,22.8,29.68,West,259,10.0,10.0,27,0.00,,,0.00,meteohub,2013-10-04 00:37:00,
2013-10-03 17:42:00,55.8,23.2,29.67,WNW,294,11.0,15.0,28,0.00,,,0.00,meteohub,2013-10-04 00:42:00,
2013-10-03 17:47:00,55.2,23.5,29.68,West,259,13.0,15.0,29,0.00,,,0.00,meteohub,2013-10-04 00:47:00,
2013-10-03 17:52:00,55.0,23.4,29.68,WSW,254,8.0,21.0,29,0.00,,,0.00,meteohub,2013-10-04 00:52:00,
2013-10-03 17:57:00,54.9,22.3,29.68,WNW,291,11.0,21.0,28,0.00,,,0.00,meteohub,2013-10-04 00:57:00,
2013-10-03 18:02:00,54.7,23.9,29.68,NW,304,11.0,21.0,30,0.00,,,0.00,meteohub,2013-10-04 01:02:00,
2013-10-03 18:07:00,54.3,24.3,29.67,West,272,8.0,17.0,31,0.00,,,0.00,meteohub,2013-10-04 01:07:00,
2013-10-03 18:17:00,52.5,25.0,29.68,West,266,8.0,14.0,34,0.00,,,0.00,meteohub,2013-10-04 01:17:00,
2013-10-03 18:22:00,52.0,25.2,29.68,West,261,11.0,17.0,35,0.00,,,0.00,meteohub,2013-10-04 01:22:00,
2013-10-03 18:27:00,51.6,25.5,29.68,WSW,250,13.0,17.0,36,0.00,,,0.00,meteohub,2013-10-04 01:27:00,
2013-10-03 18:32:00,52.2,25.3,29.68,SW,234,9.0,17.0,35,0.00,,,0.00,meteohub,2013-10-04 01:32:00,
2013-10-03 18:37:00,53.1,25.3,29.68,WSW,241,11.0,21.0,34,0.00,,,0.00,meteohub,2013-10-04 01:37:00,
2013-10-03 18:42:00,53.1,25.3,29.68,WSW,246,9.0,21.0,34,0.00,,,0.00,meteohub,2013-10-04 01:42:00,
2013-10-03 18:47:00,52.3,25.5,29.67,WSW,240,9.0,21.0,35,0.00,,,0.00,meteohub,2013-10-04 01:47:00,
2013-10-03 18:52:00,52.3,26.2,29.67,WSW,245,14.0,14.0,36,0.00,,,0.00,meteohub,2013-10-04 01:52:00,
2013-10-03 19:02:00,52.7,26.4,29.66,SW,227,8.0,16.0,36,0.00,,,0.00,meteohub,2013-10-04 02:02:00,
2013-10-03 19:12:00,52.9,27.3,29.65,SW,219,10.0,14.0,37,0.00,,,0.00,meteohub,2013-10-04 02:12:00,
2013-10-03 19:17:00,52.2,27.9,29.65,SW,217,11.0,15.0,39,0.00,,,0.00,meteohub,2013-10-04 02:17:00,
2013-10-03 19:22:00,52.0,28.4,29.65,SW,231,12.0,15.0,40,0.00,,,0.00,meteohub,2013-10-04 02:22:00,
2013-10-03 19:27:00,52.2,27.9,29.65,WSW,238,9.0,15.0,39,0.00,,,0.00,meteohub,2013-10-04 02:27:00,
2013-10-03 19:32:00,52.0,27.9,29.65,SW,234,10.0,15.0,39,0.00,,,0.00,meteohub,2013-10-04 02:32:00,
2013-10-03 19:37:00,51.6,28.0,29.65,WSW,246,16.0,16.0,40,0.00,,,0.00,meteohub,2013-10-04 02:37:00,
2013-10-03 19:42:00,51.6,28.0,29.66,West,274,10.0,17.0,40,0.00,,,0.00,meteohub,2013-10-04 02:42:00,
2013-10-03 19:47:00,51.3,27.7,29.65,WSW,244,11.0,17.0,40,0.00,,,0.00,meteohub,2013-10-04 02:47:00,
2013-10-03 19:52:00,51.6,28.0,29.65,WSW,241,12.0,18.0,40,0.00,,,0.00,meteohub,2013-10-04 02:52:00,
2013-10-03 19:57:00,51.3,28.9,29.65,WSW,258,6.0,18.0,42,0.00,,,0.00,meteohub,2013-10-04 02:57:00,
2013-10-03 20:02:00,51.1,29.8,29.65,WSW,253,11.0,21.0,44,0.00,,,0.00,meteohub,2013-10-04 03:02:00,
2013-10-03 20:07:00,52.0,29.7,29.65,WSW,242,13.0,23.0,42,0.00,,,0.00,meteohub,2013-10-04 03:07:00,
2013-10-03 20:12:00,51.4,29.1,29.65,WSW,245,12.0,23.0,42,0.00,,,0.00,meteohub,2013-10-04 03:12:00,
2013-10-03 20:17:00,50.5,29.5,29.65,WSW,257,10.0,23.0,44,0.00,,,0.00,meteohub,2013-10-04 03:17:00,
2013-10-03 20:22:00,49.8,30.4,29.65,West,265,12.0,24.0,47,0.00,,,0.00,meteohub,2013-10-04 03:22:00,
2013-10-03 20:27:00,50.2,30.2,29.64,WSW,248,13.0,24.0,46,0.00,,,0.00,meteohub,2013-10-04 03:27:00,
2013-10-03 20:32:00,50.4,30.9,29.64,West,263,9.0,24.0,47,0.00,,,0.00,meteohub,2013-10-04 03:32:00,
2013-10-03 20:37:00,49.8,30.9,29.64,WSW,247,8.0,18.0,48,0.00,,,0.00,meteohub,2013-10-04 03:37:00,
2013-10-03 20:42:00,49.6,31.3,29.64,WSW,253,9.0,20.0,49,0.00,,,0.00,meteohub,2013-10-04 03:42:00,
2013-10-03 20:47:00,49.1,31.3,29.64,WSW,254,11.0,20.0,50,0.00,,,0.00,meteohub,2013-10-04 03:47:00,
2013-10-03 20:52:00,48.9,31.6,29.64,WSW,251,9.0,20.0,51,0.00,,,0.00,meteohub,2013-10-04 03:52:00,
2013-10-03 20:57:00,48.9,31.6,29.64,SW,234,8.0,13.0,51,0.00,,,0.00,meteohub,2013-10-04 03:57:00,
2013-10-03 21:32:00,46.4,32.0,29.64,ENE,76,7.0,10.0,57,0.00,,,0.00,meteohub,2013-10-04 04:32:00,
2013-10-03 21:37:00,46.4,32.0,29.64,East,89,6.0,10.0,57,0.00,,,0.00,meteohub,2013-10-04 04:37:00,
2013-10-03 21:47:00,46.0,32.5,29.64,ESE,119,3.0,13.0,59,0.00,,,0.00,meteohub,2013-10-04 04:47:00,
2013-10-03 21:52:00,45.3,32.2,29.65,SE,144,5.0,14.0,60,0.00,,,0.00,meteohub,2013-10-04 04:52:00,
2013-10-03 22:02:00,41.5,31.1,29.66,East,94,10.0,21.0,66,0.00,,,0.00,meteohub,2013-10-04 05:02:00,
2013-10-03 22:12:00,37.8,28.9,29.68,East,92,9.0,28.0,70,0.00,,,0.00,meteohub,2013-10-04 05:12:00,
2013-10-03 22:22:00,36.9,28.0,29.69,East,96,9.0,28.0,70,0.00,,,0.00,meteohub,2013-10-04 05:22:00,
2013-10-03 22:27:00,36.5,27.3,29.69,ESE,110,7.0,19.0,69,0.00,,,0.00,meteohub,2013-10-04 05:27:00,
2013-10-03 22:32:00,36.1,27.0,29.70,East,98,8.0,19.0,69,0.00,,,0.00,meteohub,2013-10-04 05:32:00,
2013-10-03 22:37:00,35.8,26.6,29.71,East,88,9.0,19.0,69,0.00,,,0.00,meteohub,2013-10-04 05:37:00,
2013-10-03 22:42:00,35.2,26.4,29.71,East,84,13.0,19.0,70,0.00,,,0.00,meteohub,2013-10-04 05:42:00,
2013-10-03 22:47:00,35.1,26.6,29.71,ESE,106,5.0,18.0,71,0.00,,,0.00,meteohub,2013-10-04 05:47:00,
2013-10-03 22:57:00,34.5,26.8,29.72,ESE,102,8.0,17.0,73,0.00,,,0.00,meteohub,2013-10-04 05:57:00,
2013-10-03 23:02:00,34.3,26.6,29.73,East,94,3.0,14.0,73,0.00,,,0.00,meteohub,2013-10-04 06:02:00,
2013-10-03 23:07:00,34.2,26.4,29.73,East,101,14.0,14.0,73,0.00,,,0.00,meteohub,2013-10-04 06:07:00,
2013-10-03 23:12:00,34.2,26.4,29.73,ESE,117,8.0,15.0,73,0.00,,,0.00,meteohub,2013-10-04 06:12:00,
2013-10-03 23:17:00,34.2,26.4,29.73,ESE,111,10.0,15.0,73,0.00,,,0.00,meteohub,2013-10-04 06:17:00,
2013-10-03 23:22:00,33.6,26.6,29.74,ENE,67,7.0,15.0,75,0.00,,,0.00,meteohub,2013-10-04 06:22:00,
2013-10-03 23:27:00,33.3,26.6,29.74,East,81,10.0,20.0,76,0.00,,,0.00,meteohub,2013-10-04 06:27:00,
2013-10-03 23:32:00,33.1,26.6,29.75,ENE,63,11.0,20.0,77,0.00,,,0.00,meteohub,2013-10-04 06:32:00,
2013-10-03 23:37:00,32.7,26.6,29.75,ESE,103,12.0,20.0,78,0.00,,,0.00,meteohub,2013-10-04 06:37:00,
2013-10-03 23:42:00,32.2,27.0,29.75,ESE,109,14.0,19.0,81,0.00,,,0.00,meteohub,2013-10-04 06:42:00,
2013-10-03 23:47:00,31.3,26.8,29.75,ESE,112,8.0,19.0,83,0.00,,,0.00,meteohub,2013-10-04 06:47:00,
2013-10-03 23:52:00,30.7,27.1,29.76,East,81,13.0,20.0,86,0.00,,,0.00,meteohub,2013-10-04 06:52:00,
2013-10-03 23:57:00,30.4,27.0,29.76,ESE,103,14.0,20.0,87,0.00,,,0.00,meteohub,2013-10-04 06:57:00,